Milledgeville, GA

9:46 PM EST on February 09, 2016 (GMT -0500)
Baldwin County

Weather History for KMLJ - March, 2013

Change the Weather History Date:

Sunday, March 24, 2013

  Actual Average (KMCN) Record (KMCN)
Temperature  
Mean Temperature 52 °F 59 °F  
Max Temperature 53 °F 72 °F 92 °F (1929)
Min Temperature 51 °F 46 °F 27 °F (1968)
Degree Days  
Heating Degree Days 13 7  
Month to date heating degree days 227  
Since 1 July heating degree days 2152  
Cooling Degree Days 0 1  
Month to date cooling degree days 13  
Year to date cooling degree days 16  
Growing Degree Days 2 (Base 50)    
Moisture  
Dew Point 53 °F    
Average Humidity 99    
Maximum Humidity 100    
Minimum Humidity 67    
Precipitation  
Precipitation 0.00 in 0.14 in 1.89 in (1957)
Month to date precipitation 3.56  
Year to date precipitation 12.16  
Snow  
Snow 0.00 in 0.00 in 0.00 in (2002)
Month to date snowfall 0.2  
Since 1 July snowfall 0.7  
Snow Depth -    
Sea Level Pressure  
Sea Level Pressure 29.62 in    
Wind  
Wind Speed 3 mph (NE)    
Max Wind Speed 9 mph    
Max Gust Speed 20 mph    
Visibility 9 miles    
Events Rain , Thunderstorm    
T = Trace of Precipitation, MM = Missing Value Source: NWS Daily Summary

Daily Weather History Graph

Daily Weather History Graph

Search for Another Location

Airport or City:

Trip Planner

Search our weather history database for the weather conditions in past years. The results will help you decide how hot, cold, wet, or windy it might be!

Date:

Astronomy

Mar. 24, 2013 Rise Set
Actual Time 7:31 AM EDT 7:47 PM EDT
Civil Twilight 7:06 AM EDT 8:12 PM EDT
Nautical Twilight 6:37 AM EDT 8:41 PM EDT
Astronomical Twilight 6:08 AM EDT 9:10 PM EDT
Moon 5:21 PM EDT (3/24) 5:33 AM EDT (3/24)
Length of Visible Light 13h 06m
Length of Day
12h 16m
Waxing Gibbous, 91% of the Moon is Illuminated
Mar 24
Waxing Gibbous
Mar 27
Full
Apr 3
Last Quarter
Apr 10
New
Apr 18
First Quarter

Hourly Weather History & Observations

Time (EDT) Temp. Dew Point Humidity Pressure Visibility Wind Dir Wind Speed Gust Speed Precip Events Conditions
12:15 AM 53.6 °F 53.6 °F 100% 29.85 in 3.0 mi East 3.5 mph - N/A Rain Heavy Rain
12:35 AM 51.8 °F 51.8 °F 100% 29.79 in 5.0 mi East 6.9 mph - N/A Rain Rain
12:55 AM 51.8 °F 51.8 °F 100% 29.78 in 7.0 mi East 8.1 mph - N/A Rain Rain
1:15 AM 51.8 °F 51.8 °F 100% 29.79 in 10.0 mi Calm Calm - N/A Rain Light Rain
1:35 AM 51.8 °F 51.8 °F 100% 29.77 in 7.0 mi SE 3.5 mph - N/A Rain Rain
1:55 AM 51.8 °F 51.8 °F 100% 29.75 in 7.0 mi East 5.8 mph - N/A Rain Heavy Rain
2:15 AM 51.8 °F 51.8 °F 100% 29.71 in 10.0 mi East 6.9 mph - N/A Rain , Thunderstorm Light Thunderstorms and Rain
3:15 AM 51.8 °F 51.8 °F 100% 29.68 in 1.0 mi East 9.2 mph - N/A Rain , Thunderstorm Heavy Thunderstorms and Rain
5:35 AM 51.8 °F 51.8 °F 100% 29.64 in 7.0 mi Calm Calm - N/A Rain , Thunderstorm Thunderstorms and Rain
5:55 AM 51.8 °F 51.8 °F 100% 29.64 in 10.0 mi ENE 4.6 mph - N/A Rain , Thunderstorm Light Thunderstorms and Rain
6:15 AM 51.8 °F 51.8 °F 100% 29.62 in 10.0 mi East 5.8 mph - N/A Rain , Thunderstorm Rain
6:35 AM 51.8 °F 51.8 °F 100% 29.63 in 5.0 mi Calm Calm - N/A Rain , Thunderstorm Light Thunderstorms and Rain
6:55 AM 51.8 °F 51.8 °F 100% 29.60 in 5.0 mi East 5.8 mph - N/A Rain , Thunderstorm Light Thunderstorms and Rain
7:15 AM 51.8 °F 51.8 °F 100% 29.57 in 10.0 mi East 8.1 mph - N/A Thunderstorm Overcast
7:35 AM 51.8 °F 51.8 °F 100% 29.56 in 10.0 mi East 6.9 mph - N/A   Overcast
7:55 AM 51.8 °F 51.8 °F 100% 29.59 in 10.0 mi East 3.5 mph - N/A Thunderstorm Overcast
8:15 AM 51.8 °F 51.8 °F 100% 29.58 in 10.0 mi Calm Calm - N/A   Overcast
8:35 AM 51.8 °F 51.8 °F 100% 29.60 in 10.0 mi Calm Calm - N/A Rain Light Rain
8:55 AM 51.8 °F 51.8 °F 100% 29.59 in 7.0 mi East 3.5 mph - N/A   Light Drizzle
9:15 AM 51.8 °F 51.8 °F 100% 29.59 in 10.0 mi NNE 3.5 mph - N/A   Overcast
9:35 AM 51.8 °F 51.8 °F 100% 29.59 in 10.0 mi NNE 4.6 mph - N/A   Overcast
9:55 AM 51.8 °F 51.8 °F 100% 29.59 in 3.0 mi Calm Calm - N/A   Overcast
10:15 AM 51.8 °F 51.8 °F 100% 29.59 in 4.0 mi Calm Calm - N/A   Overcast
10:35 AM 51.8 °F 51.8 °F 100% 29.61 in 4.0 mi North 4.6 mph - N/A   Overcast
10:55 AM 51.8 °F 51.8 °F 100% 29.62 in 4.0 mi North 3.5 mph - N/A   Overcast
11:15 AM 53.6 °F 53.6 °F 100% 29.61 in 5.0 mi North 3.5 mph - N/A   Overcast
11:35 AM 53.6 °F 53.6 °F 100% 29.61 in 7.0 mi Calm Calm - N/A   Overcast
11:55 AM 53.6 °F 53.6 °F 100% 29.62 in 10.0 mi North 4.6 mph - N/A   Overcast
12:15 PM 53.6 °F 53.6 °F 100% 29.63 in 10.0 mi North 5.8 mph - N/A   Overcast
12:35 PM 53.6 °F 53.6 °F 100% 29.62 in 10.0 mi North 4.6 mph - N/A   Overcast
12:55 PM 53.6 °F 53.6 °F 100% 29.61 in 10.0 mi North 4.6 mph - N/A   Overcast
1:15 PM 53.6 °F 53.6 °F 100% 29.62 in 10.0 mi North 6.9 mph - N/A   Overcast
1:35 PM 53.6 °F 53.6 °F 100% 29.61 in 10.0 mi Calm Calm - N/A   Overcast
1:55 PM 53.6 °F 53.6 °F 100% 29.59 in 10.0 mi NE 6.9 mph - N/A   Overcast
2:15 PM 53.6 °F 53.6 °F 100% 29.59 in 10.0 mi NNE 4.6 mph - N/A   Overcast
2:35 PM 53.6 °F 53.6 °F 100% 29.59 in 10.0 mi Calm Calm - N/A   Overcast
2:55 PM 53.6 °F 53.6 °F 100% 29.60 in 10.0 mi NNW 4.6 mph - N/A   Overcast
3:15 PM 53.6 °F 53.6 °F 100% 29.61 in 10.0 mi North 3.5 mph - N/A   Overcast
3:35 PM 53.6 °F 53.6 °F 100% 29.62 in 10.0 mi Calm Calm - N/A   Overcast
3:55 PM 53.6 °F 53.6 °F 100% 29.61 in 10.0 mi West 3.5 mph - N/A   Overcast
4:15 PM 53.6 °F 53.6 °F 100% 29.61 in 10.0 mi WNW 3.5 mph - N/A   Overcast
4:35 PM 53.6 °F 53.6 °F 100% 29.59 in 10.0 mi NNE 3.5 mph - N/A   Overcast
4:55 PM 53.6 °F 53.6 °F 100% 29.59 in 10.0 mi Calm Calm - N/A   Overcast
5:15 PM 53.6 °F 53.6 °F 100% 29.58 in 10.0 mi Calm Calm - N/A   Overcast
5:35 PM 53.6 °F 53.6 °F 100% 29.58 in 10.0 mi Calm Calm - N/A   Overcast
5:55 PM 53.6 °F 53.6 °F 100% 29.59 in 10.0 mi Calm Calm - N/A   Overcast
6:15 PM 53.6 °F 53.6 °F 100% 29.59 in 10.0 mi Calm Calm - N/A   Overcast
6:35 PM 53.6 °F 53.6 °F 100% 29.61 in 10.0 mi Calm Calm - N/A   Overcast
6:55 PM 53.6 °F 53.6 °F 100% 29.57 in 10.0 mi Calm Calm - N/A   Overcast
7:15 PM 53.6 °F 53.6 °F 100% 29.57 in 10.0 mi Calm Calm - N/A   Overcast
7:35 PM 53.6 °F 53.6 °F 100% 29.57 in 10.0 mi Calm Calm - N/A   Overcast
8:15 PM 53.6 °F 53.6 °F 100% 29.58 in 10.0 mi Calm Calm - N/A   Overcast
8:35 PM 53.6 °F 53.6 °F 100% 29.57 in 10.0 mi Calm Calm - N/A   Overcast
8:55 PM 53.6 °F 53.6 °F 100% 29.57 in 10.0 mi Calm Calm - N/A   Overcast
9:15 PM 53.6 °F 53.6 °F 100% 29.58 in 10.0 mi Calm Calm - N/A   Overcast
9:35 PM 53.6 °F 53.6 °F 100% 29.60 in 10.0 mi Calm Calm - N/A   Overcast
9:55 PM 53.6 °F 53.6 °F 100% 29.61 in 10.0 mi Calm Calm - N/A   Overcast
10:15 PM 51.8 °F 51.8 °F 100% 29.62 in 7.0 mi Calm Calm - N/A   Mostly Cloudy
10:35 PM 51.8 °F 51.8 °F 100% 29.64 in 7.0 mi WNW 3.5 mph - N/A   Scattered Clouds
10:55 PM 51.8 °F 51.8 °F 100% 29.64 in 7.0 mi Calm Calm - N/A   Mostly Cloudy
11:15 PM 51.8 °F 51.8 °F 100% 29.65 in 7.0 mi Calm Calm - N/A   Scattered Clouds
11:35 PM 51.8 °F 51.8 °F 100% 29.65 in 10.0 mi West 4.6 mph - N/A   Clear
11:55 PM 53.6 °F 42.8 °F 67% 29.66 in 10.0 mi West 8.1 mph 19.6 mph N/A   Clear